TimeCDT,TemperatureF,Dew PointF,Humidity,Sea Level PressureIn,VisibilityMPH,Wind Direction,Wind SpeedMPH,Gust SpeedMPH,PrecipitationIn,Events,Conditions,WindDirDegrees,DateUTC
12:15 AM,70.0,64.8,83,30.10,10.0,SSE,6.9,-,N/A,,Scattered Clouds,150,2013-08-19 05:15:00
12:35 AM,69.4,64.8,85,30.09,10.0,SSE,6.9,-,N/A,,Scattered Clouds,160,2013-08-19 05:35:00
12:55 AM,69.1,64.6,86,30.08,10.0,SSE,6.9,-,N/A,,Mostly Cloudy,160,2013-08-19 05:55:00
1:15 AM,68.7,64.4,86,30.08,10.0,SSE,5.8,-,N/A,,Scattered Clouds,160,2013-08-19 06:15:00
1:35 AM,68.0,64.4,88,30.07,10.0,SSE,8.1,-,N/A,,Clear,160,2013-08-19 06:35:00
1:55 AM,68.0,64.4,88,30.07,10.0,SSE,5.8,-,N/A,,Clear,150,2013-08-19 06:55:00
2:15 AM,67.1,64.0,90,30.07,10.0,SSE,4.6,-,N/A,,Clear,150,2013-08-19 07:15:00
2:35 AM,66.7,64.0,91,30.06,10.0,SSE,5.8,-,N/A,,Clear,160,2013-08-19 07:35:00
2:55 AM,66.4,64.2,93,30.06,10.0,South,5.8,-,N/A,,Clear,170,2013-08-19 07:55:00
3:15 AM,66.2,63.9,92,30.06,10.0,South,4.6,-,N/A,,Clear,170,2013-08-19 08:15:00
3:35 AM,66.4,64.0,92,30.06,10.0,South,4.6,-,N/A,,Clear,190,2013-08-19 08:35:00
3:55 AM,66.2,64.0,93,30.07,10.0,Calm,Calm,-,N/A,,Clear,0,2013-08-19 08:55:00
4:15 AM,64.6,63.5,96,30.07,10.0,Calm,Calm,-,N/A,,Clear,0,2013-08-19 09:15:00
4:35 AM,65.1,63.5,94,30.06,10.0,ESE,3.5,-,N/A,,Clear,120,2013-08-19 09:35:00
4:55 AM,64.0,63.5,98,30.05,7.0,ESE,4.6,-,N/A,,Scattered Clouds,120,2013-08-19 09:55:00
5:15 AM,64.8,63.9,97,30.06,10.0,SE,4.6,-,N/A,,Overcast,130,2013-08-19 10:15:00
5:35 AM,65.7,64.4,96,30.06,10.0,SE,4.6,-,N/A,,Overcast,140,2013-08-19 10:35:00
5:55 AM,66.2,64.4,94,30.06,10.0,SE,4.6,-,N/A,,Overcast,140,2013-08-19 10:55:00
6:15 AM,66.4,64.4,93,30.06,10.0,SSE,4.6,-,N/A,,Overcast,150,2013-08-19 11:15:00
6:35 AM,66.6,64.8,94,30.07,10.0,SSE,4.6,-,N/A,,Overcast,150,2013-08-19 11:35:00
6:55 AM,66.6,64.8,94,30.07,10.0,SE,4.6,-,N/A,,Overcast,140,2013-08-19 11:55:00
7:15 AM,66.6,64.6,93,30.07,10.0,Calm,Calm,-,N/A,,Mostly Cloudy,0,2013-08-19 12:15:00
7:35 AM,66.4,64.8,95,30.07,10.0,SE,4.6,-,N/A,,Scattered Clouds,140,2013-08-19 12:35:00
7:55 AM,67.8,65.3,92,30.07,10.0,SSE,6.9,-,N/A,,Scattered Clouds,160,2013-08-19 12:55:00
8:15 AM,68.5,65.5,90,30.07,10.0,South,8.1,-,N/A,,Mostly Cloudy,170,2013-08-19 13:15:00
8:35 AM,69.8,66.0,88,30.07,10.0,South,6.9,-,N/A,,Mostly Cloudy,170,2013-08-19 13:35:00
8:55 AM,70.3,66.2,87,30.07,10.0,South,9.2,-,N/A,,Scattered Clouds,170,2013-08-19 13:55:00
9:15 AM,73.2,67.1,81,30.08,10.0,South,11.5,-,N/A,,Scattered Clouds,180,2013-08-19 14:15:00
9:35 AM,73.6,67.3,81,30.07,10.0,South,12.7,-,N/A,,Scattered Clouds,180,2013-08-19 14:35:00
9:55 AM,74.7,67.5,78,30.07,10.0,South,12.7,-,N/A,,Clear,180,2013-08-19 14:55:00
10:15 AM,75.9,67.8,76,30.07,10.0,SSW,11.5,-,N/A,,Clear,200,2013-08-19 15:15:00
10:35 AM,77.2,68.2,74,30.07,10.0,South,12.7,-,N/A,,Clear,180,2013-08-19 15:35:00
10:55 AM,78.3,68.4,71,30.07,10.0,SSW,13.8,-,N/A,,Clear,200,2013-08-19 15:55:00
11:15 AM,79.0,68.4,70,30.07,10.0,South,11.5,18.4,N/A,,Clear,180,2013-08-19 16:15:00
11:35 AM,79.5,68.4,69,30.07,10.0,South,16.1,-,N/A,,Clear,190,2013-08-19 16:35:00
11:55 AM,80.8,65.8,60,30.06,10.0,SSW,13.8,-,N/A,,Clear,200,2013-08-19 16:55:00
12:15 PM,81.5,65.1,57,30.06,10.0,South,12.7,-,N/A,,Clear,190,2013-08-19 17:15:00
12:35 PM,82.4,65.3,56,30.05,10.0,South,15.0,-,N/A,,Clear,190,2013-08-19 17:35:00
12:55 PM,82.6,65.7,56,30.04,10.0,South,12.7,21.9,N/A,,Clear,190,2013-08-19 17:55:00
1:15 PM,82.6,66.7,59,30.03,10.0,South,15.0,20.7,N/A,,Clear,170,2013-08-19 18:15:00
1:35 PM,83.3,66.2,56,30.03,10.0,South,16.1,23.0,N/A,,Clear,180,2013-08-19 18:35:00
1:55 PM,83.5,67.6,59,30.03,10.0,South,15.0,21.9,N/A,,Clear,180,2013-08-19 18:55:00
2:15 PM,84.2,65.8,54,30.02,10.0,South,15.0,20.7,N/A,,Clear,190,2013-08-19 19:15:00
2:35 PM,84.6,66.7,55,30.02,10.0,South,15.0,-,N/A,,Clear,190,2013-08-19 19:35:00
2:55 PM,84.7,67.3,56,30.01,10.0,South,16.1,21.9,N/A,,Clear,190,2013-08-19 19:55:00
3:15 PM,85.1,66.6,54,30.01,10.0,South,13.8,-,N/A,,Clear,190,2013-08-19 20:15:00
3:35 PM,85.3,66.9,54,30.00,10.0,SSW,16.1,-,N/A,,Clear,200,2013-08-19 20:35:00
3:55 PM,85.8,67.3,54,29.99,10.0,South,12.7,-,N/A,,Clear,180,2013-08-19 20:55:00
4:15 PM,85.5,67.5,55,29.99,10.0,South,13.8,17.3,N/A,,Clear,190,2013-08-19 21:15:00
4:35 PM,86.0,67.6,54,29.99,10.0,SSW,15.0,-,N/A,,Clear,200,2013-08-19 21:35:00
4:55 PM,85.8,67.1,53,29.98,10.0,SSW,13.8,-,N/A,,Clear,200,2013-08-19 21:55:00
5:15 PM,85.5,67.5,55,29.97,10.0,South,16.1,-,N/A,,Clear,190,2013-08-19 22:15:00
5:35 PM,85.5,68.0,56,29.97,10.0,South,11.5,-,N/A,,Clear,190,2013-08-19 22:35:00
5:55 PM,85.1,68.2,57,29.97,10.0,South,10.4,17.3,N/A,,Clear,190,2013-08-19 22:55:00
6:15 PM,84.7,68.5,58,29.97,10.0,South,10.4,-,N/A,,Clear,190,2013-08-19 23:15:00
6:35 PM,84.2,68.7,60,29.97,10.0,South,10.4,-,N/A,,Clear,190,2013-08-19 23:35:00
6:55 PM,83.5,68.2,60,29.96,10.0,South,8.1,-,N/A,,Clear,190,2013-08-19 23:55:00
7:15 PM,82.6,68.5,62,29.96,10.0,South,9.2,-,N/A,,Clear,180,2013-08-20 00:15:00
7:35 PM,81.7,68.9,65,29.95,10.0,South,9.2,-,N/A,,Clear,180,2013-08-20 00:35:00
7:55 PM,81.5,68.2,64,29.95,10.0,South,8.1,-,N/A,,Clear,180,2013-08-20 00:55:00
8:15 PM,80.2,68.4,67,29.96,10.0,South,9.2,-,N/A,,Clear,180,2013-08-20 01:15:00
8:35 PM,79.2,68.7,70,29.96,10.0,South,9.2,-,N/A,,Clear,170,2013-08-20 01:35:00
8:55 PM,78.8,68.7,71,29.96,10.0,South,8.1,-,N/A,,Clear,170,2013-08-20 01:55:00
9:15 PM,77.9,68.9,74,29.97,10.0,South,8.1,-,N/A,,Clear,170,2013-08-20 02:15:00
9:35 PM,77.4,69.3,76,29.97,10.0,South,10.4,-,N/A,,Clear,170,2013-08-20 02:35:00
9:55 PM,76.8,69.8,79,29.97,10.0,South,10.4,-,N/A,,Clear,170,2013-08-20 02:55:00
10:15 PM,76.6,69.8,79,29.97,10.0,South,10.4,-,N/A,,Clear,170,2013-08-20 03:15:00
10:35 PM,76.1,70.0,81,29.98,10.0,South,9.2,-,N/A,,Clear,170,2013-08-20 03:35:00
10:55 PM,75.6,70.0,83,29.98,10.0,SE,6.9,-,N/A,,Clear,140,2013-08-20 03:55:00
11:15 PM,73.8,70.5,90,29.99,10.0,SE,4.6,-,N/A,,Clear,130,2013-08-20 04:15:00
11:35 PM,73.0,70.3,91,29.99,10.0,SSE,6.9,-,N/A,,Clear,150,2013-08-20 04:35:00
11:55 PM,73.4,70.2,90,29.99,10.0,SSE,6.9,-,N/A,,Clear,150,2013-08-20 04:55:00